When you browse on this site, cookies collect data to enhance your experience and personalize the content and advertising you see.
Visit our Privacy Policy to learn more. By continuing to use the site, you agree to this use of cookies and data.
  • In Portugal
  • List of Countries
  • For 7 days
  • Water Temperature
  • Satellite Maps
  • Weather Map
  • Weather Widgets
  • user-avatar
    Login

    Hourly Weather Krasnyy

    Today, 24 June, Monday

    Time Temperature Precipitation Wind Pressure Humidity
    00:00 +21°C° 0.1 mm 1 mps 750 mmHg 93%
    01:00 +19°C° 1.1 mm 2 mps 750 mmHg 94%
    02:00 +19°C° 1.1 mm 2 mps 750 mmHg 95%
    03:00 +18°C° 0 mm 3 mps 750 mmHg 97%
    04:00 +18°C° 0.1 mm 3 mps 750 mmHg 95%
    05:00 +18°C° 0.1 mm 2 mps 750 mmHg 94%
    06:00 +18°C° 0.1 mm 2 mps 750 mmHg 92%
    07:00 +18°C° 0.6 mm 2 mps 750 mmHg 90%
    08:00 +19°C° 0.6 mm 2 mps 751 mmHg 88%
    09:00 +19°C° 0 mm 2 mps 751 mmHg 86%
    10:00 +20°C° 0.1 mm 2 mps 751 mmHg 81%
    11:00 +21°C° 0.1 mm 2 mps 751 mmHg 76%
    12:00 +23°C° 0.1 mm 2 mps 751 mmHg 71%
    13:00 +24°C° 0 mm 2 mps 751 mmHg 66%
    14:00 +25°C° 0 mm 2 mps 751 mmHg 61%
    15:00 +25°C° 0 mm 2 mps 751 mmHg 63%
    16:00 +25°C° 0 mm 2 mps 751 mmHg 63%
    17:00 +25°C° 0 mm 3 mps 751 mmHg 63%
    18:00 +25°C° 0 mm 3 mps 751 mmHg 63%
    19:00 +22°C° 0 mm 3 mps 751 mmHg 67%
    20:00 +20°C° 0 mm 3 mps 752 mmHg 71%
    21:00 +18°C° 0 mm 2 mps 752 mmHg 76%
    22:00 +18°C° 0 mm 2 mps 752 mmHg 74%
    23:00 +17°C° 0 mm 3 mps 752 mmHg 72%

    Tomorrow, 25 June, Tuesday

    Time Temperature Precipitation Wind Pressure Humidity
    00:00 +16°C° 0 mm 3 mps 752 mmHg 70%
    01:00 +14°C° 0 mm 3 mps 752 mmHg 72%
    02:00 +14°C° 0 mm 2 mps 753 mmHg 73%
    03:00 +13°C° 0 mm 2 mps 753 mmHg 75%
    04:00 +14°C° 0 mm 2 mps 753 mmHg 73%
    05:00 +13°C° 0 mm 3 mps 754 mmHg 70%
    06:00 +14°C° 0 mm 3 mps 754 mmHg 68%
    07:00 +16°C° 0 mm 3 mps 754 mmHg 64%
    08:00 +18°C° 0 mm 4 mps 755 mmHg 60%
    09:00 +19°C° 0 mm 4 mps 755 mmHg 56%
    10:00 +20°C° 0 mm 4 mps 755 mmHg 53%
    11:00 +21°C° 0 mm 4 mps 755 mmHg 49%
    12:00 +22°C° 0 mm 4 mps 755 mmHg 45%
    13:00 +22°C° 0 mm 4 mps 755 mmHg 45%
    14:00 +22°C° 0 mm 4 mps 755 mmHg 44%
    15:00 +23°C° 0 mm 4 mps 755 mmHg 44%
    16:00 +22°C° 0 mm 4 mps 755 mmHg 47%
    17:00 +22°C° 0 mm 3 mps 755 mmHg 50%
    18:00 +21°C° 0 mm 3 mps 754 mmHg 54%
    19:00 +19°C° 0 mm 2 mps 755 mmHg 60%
    20:00 +17°C° 0 mm 2 mps 755 mmHg 66%
    21:00 +15°C° 0 mm 2 mps 755 mmHg 73%
    22:00 +15°C° 0 mm 2 mps 755 mmHg 75%
    23:00 +14°C° 0 mm 2 mps 755 mmHg 77%

    Day after tomorrow, 26 June, Wednesday

    Time Temperature Precipitation Wind Pressure Humidity
    00:00 +13°C° 0 mm 2 mps 755 mmHg 80%
    01:00 +12°C° 0 mm 2 mps 755 mmHg 81%
    02:00 +12°C° 0 mm 2 mps 755 mmHg 83%
    03:00 +10°C° 0 mm 2 mps 756 mmHg 84%
    04:00 +12°C° 0 mm 2 mps 755 mmHg 82%
    05:00 +13°C° 0 mm 2 mps 755 mmHg 79%
    06:00 +13°C° 0 mm 2 mps 755 mmHg 76%
    07:00 +15°C° 0 mm 2 mps 755 mmHg 68%
    08:00 +17°C° 0 mm 2 mps 755 mmHg 60%
    09:00 +19°C° 0 mm 3 mps 755 mmHg 52%
    10:00 +20°C° 0 mm 3 mps 755 mmHg 49%
    11:00 +20°C° 0 mm 3 mps 754 mmHg 46%
    12:00 +21°C° 0 mm 3 mps 754 mmHg 44%
    13:00 +21°C° 0 mm 3 mps 754 mmHg 45%
    14:00 +21°C° 0 mm 3 mps 753 mmHg 47%
    15:00 +21°C° 0 mm 3 mps 753 mmHg 49%
    16:00 +21°C° 0.1 mm 3 mps 752 mmHg 56%
    17:00 +20°C° 0.1 mm 3 mps 752 mmHg 63%
    18:00 +19°C° 0.1 mm 2 mps 751 mmHg 71%
    19:00 +18°C° 0.1 mm 2 mps 751 mmHg 76%
    20:00 +17°C° 0.1 mm 2 mps 751 mmHg 82%
    21:00 +16°C° 0.1 mm 2 mps 750 mmHg 88%
    22:00 +15°C° 0.1 mm 2 mps 750 mmHg 89%
    23:00 +15°C° 0.1 mm 2 mps 749 mmHg 90%

    27 June, Thursday

    Time Temperature Precipitation Wind Pressure Humidity
    00:00 +15°C° 0.1 mm 2 mps 749 mmHg 91%
    01:00 +14°C° 0.6 mm 1 mps 749 mmHg 93%
    02:00 +14°C° 0.6 mm 1 mps 748 mmHg 95%
    03:00 +14°C° 0.6 mm 1 mps 748 mmHg 97%
    04:00 +14°C° 0.8 mm 1 mps 747 mmHg 97%
    05:00 +14°C° 0.8 mm 1 mps 747 mmHg 98%
    06:00 +14°C° 0.8 mm 1 mps 746 mmHg 98%
    07:00 +14°C° 0.3 mm 1 mps 746 mmHg 97%
    08:00 +14°C° 0.3 mm 2 mps 745 mmHg 97%
    09:00 +14°C° 0.3 mm 2 mps 744 mmHg 96%
    10:00 +14°C° 0.8 mm 3 mps 744 mmHg 97%
    11:00 +14°C° 0.8 mm 3 mps 743 mmHg 97%
    12:00 +16°C° 0.8 mm 3 mps 743 mmHg 97%
    13:00 +16°C° 0.8 mm 3 mps 742 mmHg 97%
    14:00 +15°C° 0.8 mm 4 mps 742 mmHg 97%
    15:00 +15°C° 0.8 mm 4 mps 741 mmHg 97%
    16:00 +17°C° 0.8 mm 4 mps 740 mmHg 96%
    17:00 +17°C° 0.8 mm 4 mps 740 mmHg 96%
    18:00 +18°C° 0.8 mm 4 mps 739 mmHg 95%
    19:00 +18°C° 0.5 mm 4 mps 738 mmHg 95%
    20:00 +18°C° 0.5 mm 4 mps 738 mmHg 95%
    21:00 +18°C° 0.5 mm 4 mps 737 mmHg 95%
    22:00 +17°C° 0.4 mm 5 mps 737 mmHg 95%
    23:00 +17°C° 0.4 mm 5 mps 736 mmHg 95%

    28 June, Friday

    Time Temperature Precipitation Wind Pressure Humidity
    00:00 +17°C° 0.4 mm 5 mps 736 mmHg 96%
    01:00 +16°C° 0.4 mm 5 mps 735 mmHg 95%
    02:00 +16°C° 0.4 mm 5 mps 735 mmHg 95%
    03:00 +16°C° 0.4 mm 5 mps 734 mmHg 95%
    04:00 +16°C° 1.4 mm 5 mps 734 mmHg 95%
    05:00 +15°C° 1.4 mm 5 mps 733 mmHg 96%
    06:00 +15°C° 1.4 mm 5 mps 733 mmHg 96%
    07:00 +15°C° 0.3 mm 5 mps 733 mmHg 95%
    08:00 +15°C° 0.3 mm 4 mps 733 mmHg 94%
    09:00 +14°C° 0.3 mm 3 mps 733 mmHg 93%
    10:00 +15°C° 0 mm 4 mps 733 mmHg 86%
    11:00 +17°C° 0 mm 4 mps 733 mmHg 79%
    12:00 +18°C° 0 mm 4 mps 734 mmHg 72%
    13:00 +19°C° 0.2 mm 4 mps 734 mmHg 71%
    14:00 +19°C° 0.2 mm 5 mps 734 mmHg 70%
    15:00 +20°C° 0.2 mm 5 mps 734 mmHg 69%
    16:00 +19°C° 0 mm 5 mps 734 mmHg 68%
    17:00 +19°C° 0 mm 4 mps 734 mmHg 67%
    18:00 +19°C° 0 mm 4 mps 734 mmHg 66%
    19:00 +17°C° 0 mm 4 mps 734 mmHg 74%
    20:00 +14°C° 0 mm 3 mps 734 mmHg 82%
    21:00 +13°C° 0 mm 3 mps 734 mmHg 90%
    22:00 +12°C° 0 mm 3 mps 734 mmHg 91%
    23:00 +11°C° 0 mm 3 mps 734 mmHg 93%

    29 June, Saturday

    Time Temperature Precipitation Wind Pressure Humidity
    00:00 +11°C° 0 mm 3 mps 735 mmHg 95%
    01:00 +11°C° 0 mm 3 mps 735 mmHg 93%
    02:00 +11°C° 0 mm 3 mps 735 mmHg 91%
    03:00 +12°C° 0 mm 3 mps 735 mmHg 90%
    04:00 +12°C° 0 mm 3 mps 735 mmHg 89%
    05:00 +12°C° 0 mm 4 mps 735 mmHg 88%
    06:00 +12°C° 0 mm 4 mps 735 mmHg 87%
    07:00 +13°C° 0.1 mm 4 mps 735 mmHg 84%
    08:00 +14°C° 0.1 mm 3 mps 735 mmHg 81%
    09:00 +16°C° 0.1 mm 3 mps 736 mmHg 78%
    10:00 +16°C° 0.8 mm 3 mps 736 mmHg 79%
    11:00 +17°C° 0.8 mm 3 mps 736 mmHg 79%
    12:00 +17°C° 0.8 mm 3 mps 736 mmHg 80%
    13:00 +18°C° 0.4 mm 3 mps 736 mmHg 77%
    14:00 +18°C° 0.4 mm 3 mps 736 mmHg 73%
    15:00 +19°C° 0.4 mm 3 mps 736 mmHg 69%
    16:00 +19°C° 0.3 mm 2 mps 736 mmHg 72%
    17:00 +18°C° 0.3 mm 2 mps 736 mmHg 75%
    18:00 +18°C° 0.3 mm 2 mps 737 mmHg 77%
    19:00 +16°C° 0.2 mm 2 mps 737 mmHg 82%
    20:00 +15°C° 0.2 mm 1 mps 737 mmHg 87%
    21:00 +13°C° 0.2 mm 1 mps 737 mmHg 92%
    22:00 +13°C° 0 mm 1 mps 738 mmHg 94%
    23:00 +12°C° 0 mm 1 mps 738 mmHg 95%
    Show more